DECAYED
Showing default

CYGNUS NG-21, 60378 (Decayed)

Orbit data source: Space-Track

CYGNUS NG-21, 60378 was a payload satellite owned by NGIS (US) in LEO that was launched on Sun, 04 Aug 2024 UTC via an FALCON 9 launch vehicle from the Air Force Eastern Test Range (AFETR). Payload-class satellites include a variety of spacecraft equipped with specific instruments for various scientific and technological missions. These include communications satellites like Starlink; space stations such as the ISS; scientific satellites like the Hubble; Earth observation satellites from companies like Planet Labs, Umbra, and HawkEye 360; GPS; miniature CubeSats for education and research; and military/defense satellites.

Loading next visibility...
Identifier
60378, 2024-139A
Orbit
Decayed
Last TLE update
3 months ago
Origin
Manufacturer
NGIS SSG
Mission
Decayed Commercial Spaceship
Bus & Motor
EPCM, Unknown motor
Mass
8,050 kg wet, 2,474 kg dry
Launch date (UTC)
2024-08-04 (11 months ago)
Launch vehicle
FALCON 9
Launch site
Air Force Eastern Test Range (AFETR)
Object type
Payload
Rocket body
Debris
Shape & HBR
Cyl + 2 Pan, 10.5 m
Radar Cross Section
23.798 m², Large (>1 m²)

Expand to show TLE details & history

TLE from 3 months ago
0 CYGNUS NG-21
1 60378U 24139A   25088.70227920 -.00143412  00000-0 -23520-2 0  9996
2 60378  51.6312 340.7025 0003340  22.2587  73.6560 15.52265117 36855
Epoch: 2025-03-29T16:51Z
TLE epoch observation values (Epoch: 2025-03-29T16:51:16.922Z)
Latitude
51.39815°
Longitude
0.08318°
Altitude
415.44 km
Speed
7.669 km/s
True Right ascension
05h 20m 59s
True Declination
51° 13' 19"
Sunlit
Object was in daylight at epoch
Visualization orbit readout
Visualization observer readout
Orbital elements
Apogee altitude
412.892 km
Perigee altitude
408.357 km
Semi-major axis
6,788.761 km
Eccentricity
0.00033
Inclination
51.6312°
RAAN
340.7025°
Arg. of periapsis
22.2587°
True anomaly
Unknown
Mean anomaly
73.656°
Eccentric anomaly
Unknown
Mean motion
3.88023 °/min
Orbital period
92.78 mins
BSTAR
-0.002352
Loading maneuver chart data...
Loading SW <> Apogee altitude chart data...
Loading historical data...
Loading historical data...
Loading historical data...
Loading historical data...
Loading historical data...
Loading historical data...
Loading historical data...
Other satellites on launch #139 in the year 2024 (2024-08-04 UTC)

CYGNUS NG-21 Visibility forecast

Observer location: undefined°, undefined°

Span
Click to sort rows by Start time (UTC) header in descending order
Start Az.
Max El. time (UTC)
Max El. Az.
Max El.
End time (UTC)
End Az.
5 mins2025-07-14 01:31:38.663Z179.604° S2025-07-14 01:33:38.663Z136.327° SSE22.223°2025-07-14 01:36:38.663Z77.584° E
4 mins2025-07-14 03:09:38.663Z275.362° WNW2025-07-14 03:11:38.663Z353.181° N31.996°2025-07-14 03:13:38.663Z35.595° NE
5 mins2025-07-14 08:04:38.663Z336.159° NNW2025-07-14 08:06:38.663Z38.398° NE29.729°2025-07-14 08:09:38.663Z97.076° ESE
4 mins2025-07-14 09:42:38.663Z262.843° W2025-07-14 09:43:38.663Z234.183° WSW25.982°2025-07-14 09:46:38.663Z166.51° S
|